Hourly Data Report for October 03, 2017

All times are specified in Local Standard Time (LST). Add 1 hour to adjust for Daylight Saving Time where and when it is observed.

PORT HAWKESBURY
NOVA SCOTIA

45°39'24.000" N
61°22'05.000" W
114.90 m
8204495
71041
YPD

Download Data

Hourly Data (October 2017)
Hourly Data Report for October 3, 2017
Temp Definition
°C
Dew Point Temp Definition
°C
Rel Hum Definition
%
Wind Dir Definition
10's deg

Wind Spd Definition
km/h
Visibility Definition
km
Stn Press Definition
kPa
Hmdx Definition


Wind Chill Definition


Weather Definition


TIME
00:00 Legend Double Dagger 7.0 4.0 81 32 5 16.1 101.62     LegendNANA
01:00 Legend Double Dagger 6.9 3.9 81 32 8 16.1 101.66     LegendNANA
02:00 Legend Double Dagger 7.2 4.2 81 30 5 16.1 101.73     LegendNANA
03:00 Legend Double Dagger 7.2 3.6 78 35 5 16.1 101.76     LegendNANA
04:00 Legend Double Dagger 7.3 3.6 77 35 5 16.1 101.81     LegendNANA
05:00 Legend Double Dagger 7.3 3.7 78 LegendMM 4 16.1 101.87     LegendNANA
06:00 Legend Double Dagger 8.1 2.8 69 33 8 16.1 101.93     LegendNANA
07:00 Legend Double Dagger 7.7 2.6 70 1 9 16.1 101.97     LegendNANA
08:00 Legend Double Dagger 9.7 2.9 63 36 13 16.1 102.01     LegendNANA
09:00 Legend Double Dagger 11.2 2.8 56 36 13 16.1 102.02     LegendNANA
10:00 Legend Double Dagger 12.2 2.6 52 36 13 16.1 102.01     LegendNANA
11:00 Legend Double Dagger 13.0 2.5 49 34 15 16.1 101.99     LegendNANA
12:00 Legend Double Dagger 12.4 3.4 54 30 24 16.1 101.99     LegendNANA
13:00 Legend Double Dagger 12.2 4.3 58 31 22 16.1 101.94     LegendNANA
14:00 Legend Double Dagger 11.7 3.8 58 31 21 16.1 101.96     LegendNANA
15:00 Legend Double Dagger 11.6 3.1 56 31 22 16.1 101.89     LegendNANA
16:00 Legend Double Dagger 10.1 3.6 64 31 15 16.1 101.78     LegendNANA
17:00 Legend Double Dagger 9.4 4.0 69 35 9 16.1 101.77     LegendNANA
18:00 Legend Double Dagger 8.2 4.0 75 36 8 16.1 101.75     LegendNANA
19:00 Legend Double Dagger 6.2 3.7 84 34 5 16.1 101.76     LegendNANA
20:00 Legend Double Dagger 5.3 3.8 90 12 5 16.1 101.77     LegendNANA
21:00 Legend Double Dagger 5.2 3.5 89   0 16.1 101.70     LegendNANA
22:00 Legend Double Dagger 6.3 5.4 94 26 11 16.1 101.63     LegendNANA
23:00 Legend Double Dagger 6.4 5.0 91 26 11 16.1 101.58     LegendNANA

Notes on Data Quality.

Legend

  • E = Estimated
  • M = Missing
  • NA = Not Available
  • ‡ = Partner data that is not subject to review by the National Climate Archives
Date modified: